FW9558 Weather Reports


Display with metric or nautical units.
time (UTC)temp
F
wind
direction
speed
MPH
gust
MPH
rain 1hr
in
rain 24hr
in
rain mn
in
humidity
%
barometer
mb
20260903234544 65 0 0.0 0.0 0.00 0.00 0.00 85 1022.2
20260903233055 65 0 0.0 0.0 0.00 0.00 0.00 84 1022.3
20260903231552 66 0 0.0 0.0 0.00 0.00 0.00 83 1022.5
20260903230051 66 0 0.0 0.0 0.00 0.00 0.00 82 1022.5
20260903224610 67 0 0.0 0.0 0.00 0.00 0.00 81 1022.6
20260903223047 67 0 0.0 0.0 0.00 0.00 0.00 80 1022.8
20260903221544 68 0 0.0 0.0 0.00 0.00 0.00 78 1022.7
20260903220047 68 0 0.0 0.0 0.00 0.00 0.00 78 1022.9
20260903214606 69 0 0.0 0.0 0.00 0.00 0.00 78 1022.9
20260903213058 69 0 0.0 0.0 0.00 0.00 0.00 76 1022.9
20260903211544 70 0 0.0 0.0 0.00 0.00 0.00 75 1023.0
20260903210103 70 0 0.0 0.0 0.00 0.00 0.00 74 1023.0
20260903204548 70 0 0.0 0.0 0.00 0.00 0.00 73 1023.2
20260903203104 71 0 0.0 0.0 0.00 0.00 0.00 72 1023.3
20260903201547 71 0 0.0 0.0 0.00 0.00 0.00 71 1023.3
20260903200051 72 0 0.0 0.0 0.00 0.00 0.00 70 1023.1
20260903194543 73 0 0.0 0.0 0.00 0.00 0.00 69 1023.1
20260903193047 73 0 0.0 3.0 0.00 0.00 0.00 68 1023.2
20260903191542 74 275 0.0 3.0 0.00 0.00 0.00 68 1023.2
20260903190044 75 282 1.0 4.0 0.00 0.00 0.00 66 1023.1
20260903184549 76 281 0.0 6.0 0.00 0.00 0.00 65 1023.1
20260903183054 77 0 0.0 4.0 0.00 0.00 0.00 63 1023.1
20260903181549 78 0 0.0 6.0 0.00 0.00 0.00 61 1023.1
20260903180046 80 267 1.0 6.0 0.00 0.00 0.00 58 1023.3
20260903174544 81 290 2.0 6.0 0.00 0.00 0.00 56 1023.3
20260903173047 82 342 0.0 3.0 0.00 0.00 0.00 55 1023.2
20260903171549 82 278 1.0 6.0 0.00 0.00 0.00 55 1023.2
20260903170046 82 269 1.0 7.0 0.00 0.00 0.00 55 1023.3
20260903164550 83 308 1.0 7.0 0.00 0.00 0.00 55 1023.4
20260903163052 83 294 1.0 7.0 0.00 0.00 0.00 55 1023.4
20260903161546 83 267 1.0 7.0 0.00 0.00 0.00 55 1023.5
20260903160045 82 247 1.0 7.0 0.00 0.00 0.00 55 1023.6
20260903154605 82 229 2.0 8.0 0.00 0.00 0.00 55 1023.8
20260903153044 83 232 1.0 6.0 0.00 0.00 0.00 53 1023.7
20260903151551 83 257 1.0 5.0 0.00 0.00 0.00 55 1024.0
20260903150049 83 289 3.0 7.0 0.00 0.00 0.00 55 1024.1
20260903144545 83 225 1.0 7.0 0.00 0.00 0.00 54 1024.2
20260903143102 82 0 1.0 3.0 0.00 0.00 0.00 56 1024.4
20260903141557 82 272 3.0 8.0 0.00 0.00 0.00 55 1024.5
20260903140046 81 189 2.0 10.0 0.00 0.00 0.00 56 1024.4
20260903134552 81 284 1.0 7.0 0.00 0.00 0.00 57 1024.6
20260903133047 80 0 2.0 7.0 0.00 0.00 0.00 59 1024.8
20260903131546 79 253 2.0 9.0 0.00 0.00 0.00 59 1024.8
20260903130043 79 294 0.0 7.0 0.00 0.00 0.00 60 1024.8
20260903124547 79 200 2.0 6.0 0.00 0.00 0.00 61 1025.0
20260903123044 78 246 1.0 7.0 0.00 0.00 0.00 61 1025.1
20260903121544 77 283 1.0 7.0 0.00 0.00 0.00 62 1025.3
20260903120044 77 292 0.0 9.0 0.00 0.00 0.00 64 1025.4
20260903114549 76 263 2.0 6.0 0.00 0.00 0.00 64 1025.5
20260903113044 75 0 1.0 5.0 0.00 0.00 0.00 64 1025.5
20260903110052 74 272 3.0 7.0 0.00 0.00 0.00 68 1025.8
20260903104547 75 265 1.0 6.0 0.00 0.00 0.00 68 1026.0
20260903103050 74 355 1.0 5.0 0.00 0.00 0.00 70 1026.0
20260903101543 74 305 0.0 6.0 0.00 0.00 0.00 71 1026.2
20260903100049 72 0 0.0 5.0 0.00 0.00 0.00 75 1026.0
20260903094544 71 350 1.0 5.0 0.00 0.00 0.00 75 1026.0
20260903093102 70 233 1.0 6.0 0.00 0.00 0.00 78 1026.0
20260903091543 70 0 0.0 3.0 0.00 0.00 0.00 81 1026.2
20260903090051 69 279 1.0 4.0 0.00 0.00 0.00 83 1026.2
20260903084903 67 0 0.0 3.0 0.00 0.00 0.00 86 1026.3
20260903083053 66 264 0.0 4.0 0.00 0.00 0.00 89 1026.4
20260903081556 65 0 0.0 0.0 0.00 0.00 0.00 91 1026.4
20260903080047 64 0 0.0 1.0 0.00 0.00 0.00 93 1026.4
20260903074543 62 0 0.0 0.0 0.00 0.00 0.00 94 1026.2
20260903073043 61 0 0.0 0.0 0.00 0.00 0.00 94 1026.0
20260903071544 60 0 0.0 0.0 0.00 0.00 0.00 95 1025.9
20260903070048 59 0 0.0 0.0 0.00 0.00 0.00 94 1025.8
20260903064542 58 0 0.0 0.0 0.00 0.00 0.00 95 1025.8
20260903063108 57 0 0.0 0.0 0.00 0.00 0.00 94 1025.6
20260903061543 56 0 0.0 0.0 0.00 0.00 0.00 94 1025.5
20260903060045 56 0 0.0 0.0 0.00 0.00 0.00 94 1025.4
20260903054545 56 0 0.0 0.0 0.00 0.00 0.00 94 1025.2
20260903053050 56 0 0.0 0.0 0.00 0.00 0.00 93 1025.3
20260903051548 56 0 0.0 0.0 0.00 0.00 0.00 93 1025.2
20260903050110 56 0 0.0 0.0 0.00 0.00 0.00 93 1025.3
20260903044543 56 0 0.0 0.0 0.00 0.00 0.00 93 1025.1
20260903043049 57 0 0.0 0.0 0.00 0.00 0.00 93 1025.2
20260903041545 57 0 0.0 0.0 0.00 0.00 0.00 93 1025.0
20260903040054 57 0 0.0 0.0 0.00 0.00 0.00 92 1025.0
20260903034547 57 0 0.0 0.0 0.00 0.00 0.00 92 1024.8
20260903033046 58 0 0.0 0.0 0.00 0.00 0.00 92 1025.1
20260903031543 57 0 0.0 0.0 0.00 0.00 0.00 91 1025.0
20260903030050 58 0 0.0 0.0 0.00 0.00 0.00 91 1025.0
20260903024548 58 0 0.0 0.0 0.00 0.00 0.00 91 1025.1
20260903023045 58 0 0.0 0.0 0.00 0.00 0.00 91 1025.0
20260903021546 58 0 0.0 0.0 0.00 0.00 0.00 90 1024.8
20260903020050 59 0 0.0 0.0 0.00 0.00 0.00 90 1024.9
20260903014549 59 0 0.0 0.0 0.00 0.00 0.00 89 1024.9
20260903013050 59 0 0.0 0.0 0.00 0.00 0.00 89 1024.9
20260903011557 60 0 0.0 0.0 0.00 0.00 0.00 89 1024.9
20260903010043 60 0 0.0 0.0 0.00 0.00 0.00 89 1024.7
20260903004540 60 0 0.0 0.0 0.00 0.00 0.00 88 1024.7
20260903003048 61 0 0.0 0.0 0.00 0.00 0.00 88 1024.9
20260903001544 61 0 0.0 0.0 0.00 0.00 0.00 87 1024.9
20260903000043 61 0 0.0 0.0 0.00 0.00 0.00 87 1024.9